Regional Weather Roundup
Issued by NWS

Home | Current Version | Previous Version | Graphics & Text | Print | Product List | Glossary On
Versions: 1 2 3 4 5 6 7 8 9 10 11 12 13 14 15 16 17 18 19 20 21 22 23 24 25 26 27 28 29 30 31 32 33 34 35 36 37 38 39 40 41 42 43 44 45 46 47 48 49 50
000
ASUS45 KBOU 010507
RWRCO

WEATHER ROUNDUP FOR COLORADO
NATIONAL WEATHER SERVICE DENVER/BOULDER CO
1100 PM MDT SUN AUG 31 2014

NOTE: "FAIR" INDICATES FEW OR NO CLOUDS BELOW 12000 FEET WITH NO
SIGNIFICANT WEATHER AND/OR OBSTRUCTIONS TO VISIBILITY.

COZ001>005-013-030-031-010600-
...NORTHWEST COLORADO...

CITY           SKY/WX    TMP DP  RH WIND       PRES   REMARKS
CRAIG          PTCLDY    52  40  63 CALM      30.10R
HAYDEN         PTCLDY    52  37  58 SW5       30.11R
MEEKER         CLEAR     52  44  74 W3        30.11R
MOUNT WERNER   NOT AVBL
STEAMBOAT SPGS PTCLDY    49  44  83 CALM      30.13R
WALDEN         PTCLDY    50  34  53 NW3       30.17S
$$

COZ006>008-011-010600-
...WEST CENTRAL VALLEYS...

CITY           SKY/WX    TMP DP  RH WIND       PRES   REMARKS
GRAND JUNCTION CLEAR     64  37  36 N7        29.98R
MONTROSE       PTCLDY    60  42  51 E5        30.04R
EAGLE          CLEAR     57  45  62 E7        30.11R
RIFLE          CLEAR     67  39  35 MISG      30.03R
DELTA          CLEAR     76  32  19 SW13      29.97R
NUCLA          CLEAR     72  30  21 CALM      30.08R
$$

COZ017>023-064>068-010600-
...SOUTHWEST COLORADO...

CITY           SKY/WX    TMP DP  RH WIND       PRES   REMARKS
DURANGO        CLEAR     62  33  33 CALM      30.10R
CORTEZ         CLEAR     60  40  47 E8        30.04R
PAGOSA SPRINGS CLEAR     60  31  33 CALM      30.18R
TELLURIDE      NOT AVBL
WOLF CREEK PAS CLEAR     46  28  49 SW24G35   30.45S
$$

COZ009-010-012-014-032>034-037-058>063-010600-
...CENTRAL COLORADO...

CITY           SKY/WX    TMP DP  RH WIND       PRES   REMARKS
ASPEN          PTCLDY    54  39  57 S7        30.16R
BUENA VISTA    CLEAR     51  35  54 W8        30.14R
COPPER MTN     PTCLDY    45  32  61 W12G17    30.41S
BERTHOUD PASS  MOCLDY    34  34 100 NW14      30.43S FOG     WCI  24
COTTONWOOD PAS CLEAR     59  27  29 NW3       30.27R
GUNNISON       PTCLDY    52  36  54 N3        30.18R
KREMMLING      PTCLDY    50  41  71 CALM      30.16S
LEADVILLE      PTCLDY    47  30  51 NE8       30.26R
MONARCH PASS   CLEAR     46  28  49 W25G32    30.51F
SALIDA         CLEAR     64  32  31 W7        30.17S
SUNLIGHT       PTCLDY    46  34  61 W5        30.35S
WILKERSON PASS NOT AVBL
$$

COZ069>075-010600-
...SAN LUIS VALLEY/SANGRE DE CRISTO MOUNTAINS...

CITY           SKY/WX    TMP DP  RH WIND       PRES   REMARKS
ALAMOSA        CLEAR     56  34  43 SW10      30.14R
LA VETA PASS   NOT AVBL
SAGUACHE       NOT AVBL
$$

COZ035-036-038>040-010600-
...NORTHERN COLORADO FRONT RANGE...

CITY           SKY/WX    TMP DP  RH WIND       PRES   REMARKS
DENVER INTL AP PTCLDY    59  49  69 S5        30.00R
DMNS CITY PARK   N/A     56  55  95 S1        30.00R
AURORA         PTCLDY    57  49  74 E5        30.02R
FRONT RANGE AP NOT AVBL
ERIE MUNI ARPT PTCLDY    55  53  93 CALM      29.99S
BOULDER MUN AP PTCLDY    57  54  88 SE5       30.00R
CENTENNIAL     PTCLDY    58  49  72 SE6       30.02R
BROOMFIELD     NOT AVBL
FORT COLLINS   CLEAR     61  52  72 E13       30.01R
LONGMONT       CLEAR     58  56  92 SW3       30.01R
$$

COZ041-046-047-076>085-087-088-010600-
...PIKES PEAK/PALMER DIVIDE AND SOUTHERN FOOTHILLS...

CITY           SKY/WX    TMP DP  RH WIND       PRES   REMARKS
COLO. SPRINGS  CLEAR     61  48  62 SE6       30.06R
A. F. ACADEMY  CLEAR     53  47  82 N5        30.07R
ELLICOTT       CLEAR     60  48  64 CALM      30.05R
FALCON         CLEAR     55  47  75 W3        30.10R
FORT CARSON    CLEAR     60  49  66 S8        30.03R
LIMON          CLEAR     54  47  77 N8        29.99S
MONUMENT HILL  CLEAR     52  45  76 S9        30.08R
TRINIDAD       CLEAR     61  49  64 N6        30.00R
$$

COZ042>045-048>051-090-091-010600-
...NORTHEAST COLORADO...

CITY           SKY/WX    TMP DP  RH WIND       PRES   REMARKS
GREELEY ARPT   PTCLDY    57  45  62 E5        30.00R
AKRON          MOCLDY    56  48  74 N8        29.98R
BURLINGTON     CLEAR     58  52  80 CALM      29.92R
WRAY             N/A     61  51  70 NW12      29.91R
STERLING       MOCLDY    55  54  94 NW3       29.95R
HOLYOKE        MOCLDY    61  52  72 W7        29.93R
FORT MORGAN    MOCLDY    58  44  60 N12       29.98R
$$

COZ086-089-092>099-010600-
...SOUTHEAST COLORADO...

CITY           SKY/WX    TMP DP  RH WIND       PRES   REMARKS
PUEBLO         CLEAR     63  46  54 CALM      29.96R
LA JUNTA       CLEAR     64  51  62 NE8       29.93R
LAMAR          CLEAR     62  53  72 CALM      29.88R
SPRINGFIELD      N/A     61  53  75 N8        29.90R
$$



USA.gov is the U.S. government's official web portal to all federal, state and local government web resources and services.